Crane Lake, MN

2:48 AM CST on February 19, 2018 (GMT -0600)
Crane Lake

Weather History for KCDD - November, 2011

Change the Weather History Date:

Saturday, November 26, 2011

  Actual Average Record
Temperature  
Mean Temperature 30 °F -  
Max Temperature 32 °F 29 °F 39 °F (1999)
Min Temperature 28 °F 15 °F -11 °F (1996)
Degree Days  
Heating Degree Days 35    
Moisture  
Dew Point 28 °F    
Average Humidity 95    
Maximum Humidity 100    
Minimum Humidity 86    
Precipitation  
Precipitation 0.50 in - - ()
Sea Level Pressure  
Sea Level Pressure 29.89 in    
Wind  
Wind Speed 3 mph (NNW)    
Max Wind Speed 10 mph    
Max Gust Speed 20 mph    
Visibility 5 miles    
Events Snow    
Averages and records for this station are not official NWS values.
T = Trace of Precipitation, MM = Missing Value Source: NWS Daily Summary

Daily Weather History Graph

Daily Weather History Graph

Search for Another Location

Airport or City:

Trip Planner

Search our weather history database for the weather conditions in past years. The results will help you decide how hot, cold, wet, or windy it might be!

Date:

Astronomy

Nov. 26, 2011 Rise Set
Actual Time 7:32 AM CST 4:21 PM CST
Civil Twilight 6:57 AM CST 4:56 PM CST
Nautical Twilight 6:18 AM CST 5:35 PM CST
Astronomical Twilight 5:41 AM CST 6:12 PM CST
Moon 9:09 AM CST (11/26) 5:48 PM CST (11/26)
Length of Visible Light 9h 58m
Length of Day
8h 48m
Waxing Crescent, 3% of the Moon is Illuminated
Nov 26
Waxing Crescent
Dec 2
First Quarter
Dec 10
Full
Dec 17
Last Quarter
Dec 24
New

Hourly Weather History & Observations

Time (CST) Temp. Windchill Dew Point Humidity Pressure Visibility Wind Dir Wind Speed Gust Speed Precip Events Conditions
12:31 AM 32.0 °F - 30.2 °F 93% 29.85 in 4.0 mi Calm Calm - N/A   Overcast
12:52 AM 30.2 °F - 30.2 °F 100% 29.85 in 4.0 mi Calm Calm - N/A   Overcast
1:32 AM 30.2 °F 24.3 °F 30.2 °F 100% 29.84 in 5.0 mi NE 5.8 mph - N/A   Overcast
1:51 AM 30.2 °F - 28.4 °F 93% 29.85 in 5.0 mi Calm Calm - N/A   Overcast
2:11 AM 30.2 °F - 28.4 °F 93% 29.85 in 7.0 mi Calm Calm - N/A   Overcast
2:32 AM 30.2 °F 25.4 °F 28.4 °F 93% 29.84 in 5.0 mi East 4.6 mph - N/A   Overcast
2:51 AM 30.2 °F - 28.4 °F 93% 29.83 in 4.0 mi Calm Calm - 0.01 in   Mostly Cloudy
3:11 AM 30.2 °F 26.7 °F 28.4 °F 93% 29.83 in 7.0 mi ENE 3.5 mph - 0.01 in   Mostly Cloudy
3:31 AM 30.2 °F - 28.4 °F 93% 29.82 in 7.0 mi Calm Calm - 0.01 in   Overcast
3:51 AM 30.2 °F - 28.4 °F 93% 29.83 in 5.0 mi Calm Calm - 0.02 in   Overcast
4:31 AM 30.2 °F - 30.2 °F 100% 29.83 in 7.0 mi Calm Calm - 0.01 in   Mostly Cloudy
4:51 AM 30.2 °F - 30.2 °F 100% 29.83 in 4.0 mi Calm Calm - 0.03 in   Mostly Cloudy
5:11 AM 30.2 °F - 30.2 °F 100% 29.83 in 4.0 mi Calm Calm - 0.02 in   Mostly Cloudy
5:31 AM 30.2 °F - 30.2 °F 100% 29.84 in 4.0 mi Calm Calm - 0.04 in Snow Light Snow
5:51 AM 30.2 °F - 30.2 °F 100% 29.83 in 4.0 mi Calm Calm - 0.06 in Snow Light Snow
6:11 AM 30.2 °F - 30.2 °F 100% 29.84 in 5.0 mi Calm Calm - 0.01 in Snow Light Snow
6:51 AM 30.2 °F - 28.4 °F 93% 29.84 in 0.8 mi Calm Calm - 0.04 in Snow Light Snow
7:12 AM 30.2 °F - 28.4 °F 93% 29.83 in 0.8 mi Calm Calm - 0.03 in Snow Light Snow
7:31 AM 30.2 °F - 28.4 °F 93% 29.84 in 0.8 mi Calm Calm - 0.05 in Snow Light Snow
7:51 AM 30.2 °F 26.7 °F 28.4 °F 93% 29.84 in 0.8 mi North 3.5 mph - 0.07 in Snow Light Snow
8:11 AM 30.2 °F 26.7 °F 28.4 °F 93% 29.85 in 1.0 mi NNW 3.5 mph - 0.04 in Snow Light Snow
8:31 AM 30.2 °F - 28.4 °F 93% 29.86 in 0.8 mi Calm Calm - 0.07 in Snow Light Snow
8:51 AM 30.2 °F 26.7 °F 28.4 °F 93% 29.86 in 0.5 mi North 3.5 mph - 0.10 in Snow Snow
9:11 AM 30.2 °F 25.4 °F 28.4 °F 93% 29.86 in 0.8 mi North 4.6 mph - 0.02 in Snow Light Snow
9:31 AM 30.2 °F 26.7 °F 28.4 °F 93% 29.87 in 0.5 mi North 3.5 mph - 0.05 in Snow Snow
10:11 AM 30.2 °F 26.7 °F 28.4 °F 93% 29.87 in 1.0 mi NNW 3.5 mph - 0.01 in Snow Light Snow
10:32 AM 30.2 °F 25.4 °F 28.4 °F 93% 29.87 in 1.2 mi North 4.6 mph - 0.03 in Snow Light Snow
10:51 AM 28.4 °F 24.6 °F 28.4 °F 100% 29.87 in 1.0 mi NNW 3.5 mph - 0.05 in Snow Light Snow
11:11 AM 28.4 °F 23.3 °F 28.4 °F 100% 29.87 in 0.8 mi North 4.6 mph - 0.02 in Snow Light Snow
11:31 AM 28.4 °F 23.3 °F 28.4 °F 100% 29.87 in 0.8 mi North 4.6 mph - 0.03 in Snow Light Snow
11:51 AM 28.4 °F 23.3 °F 28.4 °F 100% 29.86 in 0.8 mi North 4.6 mph - 0.05 in Snow Light Snow
12:11 PM 28.4 °F - 28.4 °F 100% 29.86 in 1.2 mi Calm Calm - 0.01 in Snow Light Snow
12:31 PM 28.4 °F 24.6 °F 28.4 °F 100% 29.86 in 1.8 mi North 3.5 mph - 0.01 in Snow Light Snow
12:51 PM 30.2 °F - 28.4 °F 93% 29.86 in 2.5 mi Calm Calm - 0.02 in Snow Light Snow
1:11 PM 30.2 °F - 28.4 °F 93% 29.87 in 2.0 mi Calm Calm - N/A Snow Light Snow
1:31 PM 30.2 °F 25.4 °F 28.4 °F 93% 29.87 in 3.0 mi NNW 4.6 mph - N/A Snow Light Snow
1:51 PM 30.2 °F 25.4 °F 28.4 °F 93% 29.87 in 3.0 mi NNW 4.6 mph - N/A Snow Light Snow
2:11 PM 30.2 °F 23.4 °F 28.4 °F 93% 29.88 in 2.0 mi NNW 6.9 mph - N/A Snow Light Snow
2:31 PM 30.2 °F 23.4 °F 28.4 °F 93% 29.89 in 2.0 mi NW 6.9 mph - N/A Snow Light Snow
2:51 PM 30.2 °F 26.7 °F 28.4 °F 93% 29.90 in 4.0 mi NNW 3.5 mph - N/A Snow Light Snow
3:11 PM 30.2 °F 25.4 °F 26.6 °F 86% 29.91 in 5.0 mi NNW 4.6 mph - N/A Snow Light Snow
3:51 PM 28.4 °F 24.6 °F 28.4 °F 100% 29.92 in 10.0 mi NNW 3.5 mph - N/A   Mostly Cloudy
4:11 PM 28.4 °F 22.2 °F 28.4 °F 100% 29.93 in 10.0 mi NNW 5.8 mph - N/A   Mostly Cloudy
4:31 PM 28.4 °F 22.2 °F 28.4 °F 100% 29.94 in 10.0 mi NW 5.8 mph - N/A   Mostly Cloudy
4:51 PM 28.4 °F 22.2 °F 26.6 °F 93% 29.95 in 10.0 mi NNW 5.8 mph - N/A   Mostly Cloudy
5:11 PM 28.4 °F 23.3 °F 28.4 °F 100% 29.95 in 10.0 mi NNW 4.6 mph - N/A   Mostly Cloudy
5:31 PM 28.4 °F 19.7 °F 28.4 °F 100% 29.96 in 10.0 mi NNW 9.2 mph - N/A   Mostly Cloudy
5:51 PM 28.4 °F 20.4 °F 26.6 °F 93% 29.97 in 10.0 mi NNW 8.1 mph - N/A   Mostly Cloudy
6:11 PM 28.4 °F 21.2 °F 26.6 °F 93% 29.98 in 7.0 mi NNW 6.9 mph - N/A   Mostly Cloudy
6:31 PM 28.4 °F 21.2 °F 26.6 °F 93% 29.98 in 4.0 mi NNW 6.9 mph - N/A Snow Light Snow
6:51 PM 28.4 °F 19.1 °F 26.6 °F 93% 29.99 in 10.0 mi NNW 10.4 mph 16.1 mph N/A   Mostly Cloudy
7:11 PM 28.4 °F 22.2 °F 26.6 °F 93% 30.00 in 10.0 mi NNW 5.8 mph - N/A   Overcast
7:31 PM 28.4 °F 20.4 °F 26.6 °F 93% 30.00 in 10.0 mi NNW 8.1 mph - N/A   Mostly Cloudy
7:51 PM 28.4 °F 19.7 °F 24.8 °F 86% 30.01 in 10.0 mi NNW 9.2 mph 18.4 mph N/A   Scattered Clouds
8:11 PM 28.4 °F 19.1 °F 26.6 °F 93% 30.02 in 10.0 mi NNW 10.4 mph - N/A   Mostly Cloudy
8:31 PM 28.4 °F 19.1 °F 24.8 °F 86% 30.02 in 7.0 mi NNW 10.4 mph 19.6 mph N/A Snow Light Snow
8:51 PM 28.4 °F 19.7 °F 24.8 °F 86% 30.03 in 10.0 mi NNW 9.2 mph 17.3 mph N/A   Mostly Cloudy
9:11 PM 28.4 °F 20.4 °F 24.8 °F 86% 30.03 in 10.0 mi NNW 8.1 mph - N/A   Overcast
9:51 PM 28.4 °F 20.4 °F 24.8 °F 86% 30.04 in 10.0 mi NNW 8.1 mph - N/A   Overcast
10:31 PM 26.6 °F 18.2 °F 24.8 °F 93% 30.04 in 10.0 mi NNW 8.1 mph - N/A   Overcast
10:51 PM 26.6 °F 20.0 °F 24.8 °F 93% 30.05 in 10.0 mi NNW 5.8 mph - N/A   Overcast
11:11 PM 26.6 °F 18.2 °F 24.8 °F 93% 30.05 in 10.0 mi NNW 8.1 mph - N/A   Overcast
11:51 PM 26.6 °F 17.5 °F 24.8 °F 93% 30.06 in 10.0 mi NNW 9.2 mph 19.6 mph N/A   Overcast